Volver al catálogo

STARLINK-33571

ActivoComunicacionesVLEO
NORAD 63386·PAYLOAD·🇺🇸 United States

Lanzado Mar 26, 2025 desde Vandenberg Space Force Base

Loading…

Próximos Pases (próximas 24 horas)

TLE

ActualizadoSource: CelesTrak SupGP

Época: Sep 15, 2026, 03:56 UTC

1 63386C 25063Z   26258.16437500 -.00037404  00000+0 -11051-2 0  2588
2 63386  53.1583 258.6799 0001381  88.5542 133.9150 15.34411051    12

Sigue STARLINK-33571 en tiempo real con AllMySat

Download on the App Store